Hourly Data Report for June 25, 2022

KAMLOOPS A
BRITISH COLUMBIA
Current Station Operator: NAVCAN

50°42'09.000" N
120°26'55.000" W
345.30 m
1163781
71887
YKA

Download Data

Hourly Data (June 2022)
Hourly Data Report for June 25, 2022
TIME
LST
Temp Definition
°C
Dew Point Definition
°C
Rel Hum Definition
%
Precip. Amount Definition
mm

Wind Dir Definition
10's deg

Wind Spd Definition
km/h
Visibility Definition
km
Stn Press Definition
kPa
Hmdx Definition


Wind Chill Definition


Weather Definition


00:00 12.6 5.6 62   36 1 64.4 98.41     LegendNANA
01:00 11.5 6.0 69   10 4 64.4 98.46     Clear
02:00 11.6 5.8 67   36 2 64.4 98.52     LegendNANA
03:00 9.9 5.5 74   36 1 64.4 98.57     LegendNANA
04:00 10.1 5.9 75   36 2 64.4 98.61     Mainly Clear
05:00 10.5 6.3 75   9 8 64.4 98.66     LegendNANA
06:00 13.1 5.9 61   8 4 64.4 98.67     LegendNANA
07:00 14.0 6.5 60   18 4 64.4 98.69     Mainly Clear
08:00 16.7 6.7 51   12 4 64.4 98.66     LegendNANA
09:00 18.5 6.8 46   14 7 64.4 98.62     LegendNANA
10:00 21.7 6.1 36   14 7 64.4 98.54     Clear
11:00 24.3 6.2 31   12 8 64.4 98.47     LegendNANA
12:00 25.3 3.3 24   12 8 64.4 98.39     LegendNANA
13:00 26.7 1.6 19   10 15 64.4 98.35 25   Clear
14:00 27.7 1.1 17   11 14 64.4 98.28 26   LegendNANA
15:00 27.7 2.0 19   11 11 64.4 98.23 26   LegendNANA
16:00 28.2 2.3 18   10 10 64.4 98.16 27   Clear
17:00 28.3 -0.7 15   8 5 64.4 98.10 26   LegendNANA
18:00 28.2 1.4 17   10 9 64.4 98.07 26   LegendNANA
19:00 26.8 2.6 21   11 8 64.4 98.05 25   Clear
20:00 22.8 2.3 26   9 14 64.4 98.06     LegendNANA
21:00 19.0 4.7 39   36 2 64.4 98.11     LegendNANA
22:00 19.0 4.8 39   8 5 64.4 98.16     Clear
23:00 16.7 4.2 43   5 7 64.4 98.20     LegendNANA

Notes on Data Quality.

Legend

  • E = Estimated
  • M = Missing
  • NA = Not Available*
  • [empty] = Indicates an unobserved value
Date modified: